| time (UTC) | temp F | wind direction | speed knots | gust knots | rain 1hr in | rain 24hr in | rain mn in | humidity % | barometer mb |
| 20260506015321 | 71 | 234 | 1.7 | 7.0 | 0.00 | 0.04 | 0.04 | 52 | 1008.9 |
| 20260506014817 | 71 | 255 | 2.6 | 7.0 | 0.00 | 0.04 | 0.04 | 51 | 1008.9 |
| 20260506014314 | 71 | 231 | 2.6 | 7.0 | 0.00 | 0.04 | 0.04 | 51 | 1008.9 |
| 20260506013811 | 72 | 255 | 2.6 | 7.0 | 0.00 | 0.04 | 0.04 | 50 | 1008.9 |
| 20260506013308 | 72 | 283 | 2.6 | 7.8 | 0.00 | 0.04 | 0.04 | 50 | 1008.9 |
| 20260506012805 | 72 | 243 | 3.5 | 11.3 | 0.00 | 0.04 | 0.04 | 50 | 1008.5 |
| 20260506012307 | 72 | 245 | 2.6 | 11.3 | 0.00 | 0.04 | 0.04 | 50 | 1008.5 |
| 20260506011759 | 72 | 257 | 2.6 | 9.6 | 0.00 | 0.04 | 0.04 | 49 | 1008.5 |
| 20260506011255 | 72 | 224 | 2.6 | 9.6 | 0.00 | 0.04 | 0.04 | 49 | 1008.5 |
| 20260506010754 | 72 | 262 | 2.6 | 8.7 | 0.00 | 0.04 | 0.04 | 49 | 1008.2 |
| 20260506010251 | 73 | 295 | 3.5 | 8.7 | 0.00 | 0.04 | 0.04 | 49 | 1008.2 |
| 20260506005748 | 73 | 184 | 3.5 | 8.7 | 0.00 | 0.04 | 0.04 | 49 | 1008.2 |
| 20260506005245 | 73 | 257 | 3.5 | 14.8 | 0.00 | 0.04 | 0.04 | 49 | 1008.2 |
| 20260506004740 | 73 | 200 | 4.3 | 14.8 | 0.00 | 0.04 | 0.04 | 48 | 1008.2 |
| 20260506004238 | 73 | 79 | 3.5 | 13.0 | 0.00 | 0.04 | 0.04 | 48 | 1008.2 |
| 20260506003734 | 73 | 58 | 3.5 | 11.3 | 0.00 | 0.04 | 0.04 | 49 | 1008.2 |
| 20260506003231 | 73 | 142 | 2.6 | 8.7 | 0.00 | 0.04 | 0.04 | 49 | 1008.2 |
| 20260506002726 | 73 | 248 | 2.6 | 10.4 | 0.00 | 0.04 | 0.04 | 49 | 1007.8 |
| 20260506002223 | 73 | 260 | 2.6 | 10.4 | 0.00 | 0.04 | 0.04 | 49 | 1007.8 |
| 20260506001719 | 73 | 322 | 2.6 | 8.7 | 0.00 | 0.04 | 0.04 | 49 | 1007.8 |
| 20260506001217 | 73 | 84 | 2.6 | 8.7 | 0.00 | 0.04 | 0.04 | 48 | 1007.8 |
| 20260506000713 | 74 | 244 | 2.6 | 10.4 | 0.00 | 0.04 | 0.04 | 48 | 1007.8 |
| 20260506000212 | 74 | 224 | 3.5 | 13.9 | 0.00 | 0.04 | 0.04 | 47 | 1007.8 |
| 20260505235708 | 75 | 264 | 4.3 | 15.6 | 0.00 | 0.04 | 0.04 | 47 | 1007.8 |
| 20260505235206 | 75 | 195 | 4.3 | 15.6 | 0.00 | 0.04 | 0.04 | 47 | 1007.8 |
| 20260505234702 | 75 | 256 | 4.3 | 12.2 | 0.00 | 0.04 | 0.04 | 47 | 1007.8 |
| 20260505234200 | 75 | 239 | 3.5 | 12.2 | 0.00 | 0.04 | 0.04 | 47 | 1007.5 |
| 20260505233657 | 75 | 217 | 3.5 | 10.4 | 0.00 | 0.04 | 0.04 | 47 | 1007.5 |
| 20260505233155 | 75 | 252 | 2.6 | 8.7 | 0.00 | 0.04 | 0.04 | 46 | 1007.8 |
| 20260505232652 | 76 | 134 | 3.5 | 13.9 | 0.00 | 0.04 | 0.04 | 46 | 1007.5 |
| 20260505232150 | 76 | 8 | 5.2 | 13.9 | 0.00 | 0.04 | 0.04 | 45 | 1007.5 |
| 20260505231646 | 76 | 117 | 5.2 | 13.9 | 0.00 | 0.04 | 0.04 | 45 | 1007.5 |
| 20260505231145 | 76 | 252 | 7.0 | 22.6 | 0.00 | 0.04 | 0.04 | 45 | 1007.5 |
| 20260505230642 | 76 | 230 | 7.0 | 22.6 | 0.00 | 0.04 | 0.04 | 45 | 1007.5 |
| 20260505230138 | 76 | 273 | 4.3 | 13.0 | 0.00 | 0.04 | 0.04 | 45 | 1007.5 |
| 20260505225634 | 76 | 90 | 4.3 | 13.9 | 0.00 | 0.04 | 0.04 | 45 | 1007.5 |
| 20260505225131 | 77 | 155 | 4.3 | 14.8 | 0.00 | 0.04 | 0.04 | 45 | 1007.2 |
| 20260505224627 | 77 | 349 | 4.3 | 16.5 | 0.00 | 0.04 | 0.04 | 44 | 1007.2 |
| 20260505224125 | 78 | 214 | 6.1 | 17.4 | 0.00 | 0.04 | 0.04 | 44 | 1007.2 |
| 20260505223622 | 78 | 323 | 8.7 | 20.9 | 0.00 | 0.04 | 0.04 | 43 | 1007.2 |
| 20260505223118 | 78 | 214 | 8.7 | 20.9 | 0.00 | 0.04 | 0.04 | 41 | 1007.2 |
| 20260505222615 | 78 | 238 | 7.8 | 17.4 | 0.00 | 0.04 | 0.04 | 41 | 1007.2 |
| 20260505222111 | 78 | 176 | 7.0 | 17.4 | 0.00 | 0.04 | 0.04 | 42 | 1007.2 |
| 20260505221603 | 78 | 226 | 5.2 | 14.8 | 0.00 | 0.04 | 0.04 | 42 | 1007.2 |
| 20260505221059 | 78 | 121 | 5.2 | 14.8 | 0.00 | 0.04 | 0.04 | 42 | 1006.8 |
| 20260505220556 | 79 | 89 | 7.0 | 20.0 | 0.00 | 0.04 | 0.04 | 42 | 1007.2 |
| 20260505220054 | 79 | 83 | 6.1 | 20.0 | 0.00 | 0.04 | 0.04 | 41 | 1006.8 |
| 20260505215552 | 78 | 213 | 6.1 | 19.1 | 0.00 | 0.04 | 0.04 | 44 | 1006.8 |
| 20260505215050 | 78 | 89 | 5.2 | 19.1 | 0.00 | 0.04 | 0.04 | 43 | 1006.8 |
| 20260505214548 | 79 | 274 | 5.2 | 13.0 | 0.00 | 0.04 | 0.04 | 43 | 1006.8 |
| 20260505214044 | 80 | 231 | 7.0 | 16.5 | 0.00 | 0.04 | 0.04 | 42 | 1007.2 |
| 20260505213542 | 80 | 258 | 7.8 | 17.4 | 0.00 | 0.04 | 0.04 | 41 | 1007.2 |
| 20260505213038 | 80 | 219 | 7.8 | 17.4 | 0.00 | 0.04 | 0.04 | 41 | 1007.2 |
| 20260505212535 | 80 | 259 | 7.8 | 19.1 | 0.00 | 0.04 | 0.04 | 40 | 1006.8 |
| 20260505212032 | 80 | 241 | 7.0 | 19.1 | 0.00 | 0.04 | 0.04 | 39 | 1007.2 |
| 20260505211529 | 80 | 268 | 7.0 | 17.4 | 0.00 | 0.04 | 0.04 | 40 | 1006.8 |
| 20260505211026 | 80 | 93 | 7.8 | 18.2 | 0.00 | 0.04 | 0.04 | 41 | 1006.8 |
| 20260505210522 | 80 | 245 | 8.7 | 20.9 | 0.00 | 0.04 | 0.04 | 40 | 1006.8 |
| 20260505210020 | 80 | 231 | 7.8 | 20.9 | 0.00 | 0.04 | 0.04 | 39 | 1006.8 |
| 20260505205518 | 80 | 244 | 8.7 | 20.9 | 0.00 | 0.04 | 0.04 | 40 | 1006.8 |
| 20260505205015 | 80 | 44 | 9.6 | 20.9 | 0.00 | 0.04 | 0.04 | 41 | 1007.2 |
| 20260505204512 | 80 | 276 | 9.6 | 20.9 | 0.00 | 0.04 | 0.04 | 40 | 1006.8 |
| 20260505204009 | 80 | 208 | 8.7 | 20.9 | 0.00 | 0.04 | 0.04 | 41 | 1006.8 |
| 20260505203506 | 81 | 139 | 7.0 | 19.1 | 0.00 | 0.04 | 0.04 | 41 | 1006.8 |
| 20260505203003 | 80 | 181 | 6.1 | 19.1 | 0.00 | 0.04 | 0.04 | 40 | 1006.5 |
| 20260505202459 | 80 | 236 | 6.1 | 19.1 | 0.00 | 0.04 | 0.04 | 42 | 1006.8 |
| 20260505201955 | 80 | 211 | 7.0 | 19.1 | 0.00 | 0.04 | 0.04 | 43 | 1006.8 |
| 20260505201452 | 80 | 295 | 8.7 | 17.4 | 0.00 | 0.04 | 0.04 | 42 | 1006.8 |
| 20260505200949 | 80 | 266 | 9.6 | 23.5 | 0.00 | 0.04 | 0.04 | 41 | 1006.8 |
| 20260505200447 | 80 | 264 | 11.3 | 23.5 | 0.00 | 0.04 | 0.04 | 42 | 1007.2 |
| 20260505195943 | 80 | 258 | 12.2 | 22.6 | 0.00 | 0.04 | 0.04 | 42 | 1007.2 |
| 20260505195440 | 80 | 276 | 11.3 | 22.6 | 0.00 | 0.04 | 0.04 | 42 | 1006.8 |
| 20260505194937 | 80 | 122 | 8.7 | 21.7 | 0.00 | 0.04 | 0.04 | 42 | 1007.2 |
| 20260505194435 | 81 | 265 | 7.8 | 18.2 | 0.00 | 0.04 | 0.04 | 41 | 1007.2 |
| 20260505193934 | 80 | 105 | 8.7 | 15.6 | 0.00 | 0.04 | 0.04 | 42 | 1007.2 |
| 20260505193432 | 80 | 268 | 7.8 | 15.6 | 0.00 | 0.04 | 0.04 | 42 | 1007.2 |
| 20260505192930 | 80 | 259 | 7.8 | 17.4 | 0.00 | 0.04 | 0.04 | 42 | 1007.2 |
| 20260505192428 | 80 | 264 | 9.6 | 17.4 | 0.00 | 0.04 | 0.04 | 41 | 1007.2 |
| 20260505191925 | 80 | 281 | 11.3 | 18.2 | 0.00 | 0.04 | 0.04 | 39 | 1007.2 |
| 20260505191424 | 80 | 198 | 11.3 | 18.2 | 0.00 | 0.04 | 0.04 | 38 | 1007.2 |
| 20260505190920 | 80 | 281 | 13.0 | 20.0 | 0.00 | 0.04 | 0.04 | 37 | 1007.2 |
| 20260505190416 | 80 | 239 | 13.9 | 20.9 | 0.00 | 0.04 | 0.04 | 38 | 1007.2 |
| 20260505185911 | 80 | 285 | 13.0 | 20.9 | 0.00 | 0.04 | 0.04 | 38 | 1007.2 |
| 20260505185409 | 80 | 259 | 11.3 | 20.9 | 0.00 | 0.04 | 0.04 | 39 | 1007.2 |
| 20260505184904 | 80 | 258 | 10.4 | 20.9 | 0.00 | 0.04 | 0.04 | 39 | 1007.5 |
| 20260505184401 | 80 | 207 | 13.0 | 22.6 | 0.00 | 0.04 | 0.04 | 40 | 1007.5 |
| 20260505183859 | 80 | 269 | 13.9 | 22.6 | 0.00 | 0.04 | 0.04 | 37 | 1007.5 |
| 20260505183355 | 80 | 265 | 13.9 | 26.1 | 0.00 | 0.04 | 0.04 | 38 | 1007.5 |
| 20260505182852 | 80 | 274 | 13.0 | 26.1 | 0.00 | 0.04 | 0.04 | 38 | 1007.5 |
| 20260505182349 | 80 | 235 | 13.9 | 23.5 | 0.00 | 0.04 | 0.04 | 40 | 1007.8 |
| 20260505181845 | 80 | 274 | 13.0 | 23.5 | 0.00 | 0.04 | 0.04 | 39 | 1007.5 |
| 20260505181343 | 80 | 255 | 10.4 | 23.5 | 0.00 | 0.04 | 0.04 | 39 | 1007.5 |
| 20260505180839 | 80 | 268 | 9.6 | 17.4 | 0.00 | 0.04 | 0.04 | 42 | 1007.8 |
| 20260505180336 | 80 | 266 | 9.6 | 19.1 | 0.00 | 0.04 | 0.04 | 41 | 1007.8 |
| 20260505175833 | 79 | 269 | 13.9 | 25.2 | 0.00 | 0.04 | 0.04 | 41 | 1007.8 |
| 20260505175329 | 79 | 263 | 14.8 | 25.2 | 0.00 | 0.04 | 0.04 | 42 | 1008.2 |
| 20260505174825 | 79 | 262 | 13.0 | 20.9 | 0.00 | 0.04 | 0.04 | 42 | 1008.2 |
| 20260505174323 | 79 | 228 | 13.0 | 21.7 | 0.00 | 0.04 | 0.04 | 43 | 1008.2 |
| 20260505173819 | 79 | 256 | 10.4 | 21.7 | 0.00 | 0.04 | 0.04 | 42 | 1008.2 |
| 20260505173315 | 79 | 266 | 9.6 | 20.9 | 0.00 | 0.04 | 0.04 | 43 | 1008.2 |
| 20260505172813 | 79 | 269 | 8.7 | 19.1 | 0.00 | 0.04 | 0.04 | 45 | 1008.2 |
| 20260505172310 | 79 | 255 | 8.7 | 23.5 | 0.00 | 0.04 | 0.04 | 46 | 1008.2 |
| 20260505171804 | 78 | 158 | 12.2 | 26.1 | 0.00 | 0.04 | 0.04 | 46 | 1008.5 |
| 20260505171302 | 78 | 257 | 13.0 | 26.1 | 0.00 | 0.04 | 0.04 | 46 | 1008.2 |
| 20260505170758 | 78 | 270 | 9.6 | 19.1 | 0.00 | 0.04 | 0.04 | 48 | 1008.5 |
| 20260505170255 | 78 | 206 | 7.8 | 21.7 | 0.00 | 0.04 | 0.04 | 49 | 1008.5 |
| 20260505165750 | 78 | 264 | 7.0 | 18.2 | 0.00 | 0.04 | 0.04 | 49 | 1008.5 |
| 20260505165246 | 77 | 263 | 7.0 | 14.8 | 0.00 | 0.04 | 0.04 | 54 | 1008.9 |
| 20260505164742 | 77 | 260 | 7.0 | 14.8 | 0.00 | 0.04 | 0.04 | 51 | 1008.9 |
| 20260505164239 | 77 | 200 | 7.8 | 16.5 | 0.00 | 0.04 | 0.04 | 53 | 1008.9 |
| 20260505163737 | 76 | 255 | 9.6 | 17.4 | 0.00 | 0.04 | 0.04 | 50 | 1008.9 |
| 20260505163236 | 76 | 284 | 10.4 | 19.1 | 0.00 | 0.04 | 0.04 | 51 | 1009.3 |
| 20260505162732 | 76 | 272 | 9.6 | 19.1 | 0.00 | 0.04 | 0.04 | 51 | 1009.3 |
| 20260505162229 | 76 | 257 | 8.7 | 15.6 | 0.00 | 0.04 | 0.04 | 54 | 1009.3 |
| 20260505161726 | 75 | 276 | 7.8 | 15.6 | 0.00 | 0.04 | 0.04 | 52 | 1009.3 |
| 20260505161224 | 75 | 254 | 7.8 | 13.9 | 0.00 | 0.04 | 0.04 | 51 | 1009.3 |
| 20260505160721 | 75 | 250 | 8.7 | 13.9 | 0.00 | 0.04 | 0.04 | 52 | 1009.3 |
| 20260505160219 | 75 | 257 | 7.8 | 13.9 | 0.00 | 0.04 | 0.04 | 52 | 1009.3 |
| 20260505153158 | 73 | 288 | 8.7 | 17.4 | 0.00 | 0.04 | 0.04 | 52 | 1009.6 |
| 20260505152654 | 73 | 238 | 7.8 | 13.9 | 0.00 | 0.04 | 0.04 | 56 | 1009.6 |
| 20260505152150 | 73 | 270 | 7.0 | 13.0 | 0.00 | 0.04 | 0.04 | 59 | 1010.0 |
| 20260505151646 | 73 | 272 | 7.0 | 13.0 | 0.00 | 0.04 | 0.04 | 55 | 1010.0 |
| 20260505151143 | 72 | 257 | 8.7 | 14.8 | 0.00 | 0.04 | 0.04 | 57 | 1010.0 |
| 20260505150639 | 72 | 275 | 7.0 | 14.8 | 0.00 | 0.04 | 0.04 | 59 | 1010.0 |
| 20260505150137 | 72 | 250 | 5.2 | 14.8 | 0.00 | 0.04 | 0.04 | 58 | 1010.0 |
| 20260505140605 | 67 | 257 | 3.5 | 10.4 | 0.00 | 0.04 | 0.04 | 69 | 1010.3 |
| 20260505125019 | 63 | 248 | 2.6 | 6.1 | 0.00 | 0.04 | 0.04 | 72 | 1010.6 |
| 20260505124515 | 63 | 206 | 2.6 | 6.1 | 0.00 | 0.04 | 0.04 | 73 | 1010.6 |
| 20260505124012 | 63 | 267 | 1.7 | 6.1 | 0.00 | 0.04 | 0.04 | 72 | 1010.6 |
| 20260505123508 | 64 | 259 | 0.0 | 3.5 | 0.00 | 0.04 | 0.04 | 73 | 1010.6 |
| 20260505123004 | 63 | 169 | 0.0 | 1.7 | 0.00 | 0.04 | 0.04 | 75 | 1010.3 |
| 20260505122501 | 62 | 262 | 0.9 | 1.7 | 0.00 | 0.04 | 0.04 | 74 | 1010.6 |
| 20260505121958 | 62 | 254 | 0.9 | 2.6 | 0.00 | 0.04 | 0.04 | 76 | 1010.6 |
| 20260505121455 | 61 | 219 | 0.9 | 5.2 | 0.00 | 0.04 | 0.04 | 77 | 1010.6 |
| 20260505120951 | 61 | 248 | 0.9 | 5.2 | 0.00 | 0.04 | 0.04 | 76 | 1010.6 |
| 20260505120447 | 61 | 249 | 0.0 | 2.6 | 0.00 | 0.04 | 0.04 | 76 | 1010.3 |
| 20260505115946 | 60 | 258 | 0.0 | 3.5 | 0.00 | 0.04 | 0.04 | 79 | 1010.3 |
| 20260505115443 | 60 | 258 | 0.9 | 4.3 | 0.00 | 0.04 | 0.04 | 79 | 1010.6 |
| 20260505114942 | 59 | 238 | 0.9 | 4.3 | 0.00 | 0.04 | 0.04 | 79 | 1010.3 |
| 20260505114437 | 59 | 246 | 0.0 | 4.3 | 0.00 | 0.04 | 0.04 | 79 | 1010.3 |
| 20260505113934 | 59 | 98 | 0.0 | 0.9 | 0.00 | 0.04 | 0.04 | 82 | 1010.3 |
| 20260505113430 | 58 | 98 | 0.0 | 0.9 | 0.00 | 0.04 | 0.04 | 83 | 1010.3 |
| 20260505112926 | 58 | 98 | 0.0 | 1.7 | 0.00 | 0.04 | 0.04 | 83 | 1010.0 |
| 20260505112424 | 57 | 98 | 0.0 | 1.7 | 0.00 | 0.04 | 0.04 | 83 | 1010.3 |
| 20260505111920 | 57 | 99 | 0.0 | 0.9 | 0.00 | 0.04 | 0.04 | 83 | 1010.0 |
| 20260505111415 | 57 | 234 | 0.0 | 0.0 | 0.00 | 0.04 | 0.04 | 85 | 1010.3 |
| 20260505110911 | 56 | 234 | 0.0 | 0.0 | 0.00 | 0.04 | 0.04 | 86 | 1010.0 |
| 20260505110408 | 55 | 234 | 0.0 | 0.0 | 0.00 | 0.04 | 0.04 | 88 | 1010.0 |
| 20260505101833 | 53 | 234 | 0.0 | 0.9 | 0.00 | 0.04 | 0.04 | 85 | 1009.6 |
| 20260505101328 | 53 | 234 | 0.0 | 1.7 | 0.00 | 0.04 | 0.04 | 85 | 1010.0 |
| 20260505100824 | 53 | 234 | 0.0 | 1.7 | 0.00 | 0.04 | 0.04 | 85 | 1009.6 |
| 20260505100321 | 54 | 242 | 0.0 | 1.7 | 0.00 | 0.04 | 0.04 | 85 | 1009.6 |
| 20260505095817 | 54 | 281 | 0.9 | 2.6 | 0.01 | 0.04 | 0.04 | 85 | 1009.6 |
| 20260505095315 | 54 | 37 | 1.7 | 3.5 | 0.01 | 0.04 | 0.04 | 85 | 1009.6 |
| 20260505094810 | 54 | 169 | 0.9 | 3.5 | 0.01 | 0.04 | 0.04 | 86 | 1009.6 |
| 20260505094308 | 54 | 178 | 0.9 | 3.5 | 0.02 | 0.04 | 0.04 | 86 | 1009.3 |
| 20260505093803 | 54 | 259 | 1.7 | 6.1 | 0.04 | 0.04 | 0.04 | 85 | 1009.3 |
| 20260505093301 | 54 | 247 | 0.9 | 7.0 | 0.04 | 0.04 | 0.04 | 84 | 1009.6 |
| 20260505092757 | 55 | 268 | 0.0 | 7.0 | 0.04 | 0.04 | 0.04 | 83 | 1009.6 |
| 20260505092256 | 55 | 86 | 0.9 | 1.7 | 0.04 | 0.04 | 0.04 | 82 | 1009.3 |
| 20260505091753 | 55 | 77 | 1.7 | 3.5 | 0.04 | 0.04 | 0.04 | 81 | 1009.6 |
| 20260505091251 | 55 | 69 | 1.7 | 3.5 | 0.04 | 0.04 | 0.04 | 81 | 1009.6 |
| 20260505090748 | 56 | 38 | 1.7 | 5.2 | 0.04 | 0.04 | 0.04 | 80 | 1010.0 |
| 20260505090246 | 56 | 290 | 1.7 | 5.2 | 0.04 | 0.04 | 0.04 | 79 | 1010.0 |
| 20260505085743 | 56 | 346 | 0.9 | 3.5 | 0.03 | 0.03 | 0.03 | 78 | 1010.0 |
| 20260505085242 | 56 | 293 | 1.7 | 5.2 | 0.03 | 0.03 | 0.03 | 76 | 1010.0 |
| 20260505084738 | 57 | 283 | 3.5 | 7.8 | 0.03 | 0.03 | 0.03 | 74 | 1010.0 |
| 20260505084238 | 57 | 262 | 3.5 | 7.8 | 0.02 | 0.02 | 0.02 | 71 | 1010.0 |
| 20260505083734 | 57 | 278 | 2.6 | 6.1 | 0.00 | 0.00 | 0.00 | 69 | 1010.3 |
| 20260505083231 | 57 | 299 | 1.7 | 4.3 | 0.00 | 0.00 | 0.00 | 69 | 1010.0 |
| 20260505082727 | 56 | 274 | 0.9 | 2.6 | 0.00 | 0.00 | 0.00 | 70 | 1010.0 |
| 20260505082224 | 56 | 270 | 0.9 | 1.7 | 0.00 | 0.00 | 0.00 | 69 | 1009.6 |
| 20260505081720 | 56 | 270 | 0.9 | 1.7 | 0.00 | 0.00 | 0.00 | 69 | 1009.6 |
| 20260505081218 | 56 | 319 | 0.9 | 1.7 | 0.00 | 0.00 | 0.00 | 69 | 1009.6 |
| 20260505080715 | 56 | 319 | 0.0 | 1.7 | 0.00 | 0.00 | 0.00 | 69 | 1009.3 |
| 20260505080210 | 56 | 319 | 0.9 | 1.7 | 0.00 | 0.00 | 0.00 | 69 | 1009.3 |
| 20260505075706 | 56 | 262 | 0.0 | 0.9 | 0.00 | 0.00 | 0.00 | 68 | 1009.3 |
| 20260505075203 | 56 | 263 | 0.0 | 0.9 | 0.00 | 0.00 | 0.00 | 68 | 1009.3 |
| 20260505074700 | 56 | 263 | 0.0 | 0.9 | 0.00 | 0.00 | 0.00 | 68 | 1009.3 |
| 20260505074157 | 56 | 263 | 0.0 | 0.9 | 0.00 | 0.00 | 0.00 | 67 | 1009.3 |
| 20260505073655 | 56 | 262 | 0.0 | 0.9 | 0.00 | 0.00 | 0.00 | 67 | 1009.3 |
| 20260505073153 | 56 | 263 | 0.0 | 0.0 | 0.00 | 0.00 | 0.00 | 67 | 1009.6 |
| 20260505072648 | 56 | 263 | 0.0 | 0.0 | 0.00 | 0.00 | 0.00 | 67 | 1009.3 |
| 20260505072145 | 56 | 263 | 0.0 | 0.0 | 0.00 | 0.00 | 0.00 | 68 | 1009.3 |
| 20260505071640 | 56 | 263 | 0.0 | 0.0 | 0.00 | 0.00 | 0.00 | 68 | 1009.3 |
| 20260505071139 | 56 | 263 | 0.0 | 0.0 | 0.00 | 0.00 | 0.00 | 67 | 1009.3 |
| 20260505070635 | 56 | 262 | 0.0 | 0.9 | 0.00 | 0.00 | 0.00 | 67 | 1009.3 |
| 20260505070132 | 56 | 262 | 0.0 | 0.9 | 0.00 | 0.00 | 0.00 | 67 | 1009.3 |
| 20260505065628 | 55 | 262 | 0.0 | 0.0 | 0.00 | 0.00 | 0.00 | 68 | 1009.3 |
| 20260505065124 | 56 | 262 | 0.0 | 0.9 | 0.00 | 0.00 | 0.00 | 67 | 1009.3 |
| 20260505064621 | 55 | 263 | 0.0 | 0.9 | 0.00 | 0.00 | 0.00 | 68 | 1009.3 |
| 20260505064120 | 55 | 262 | 0.0 | 0.0 | 0.00 | 0.00 | 0.00 | 67 | 1009.3 |
| 20260505063617 | 55 | 263 | 0.0 | 0.0 | 0.00 | 0.00 | 0.00 | 66 | 1009.3 |
| 20260505063113 | 56 | 263 | 0.0 | 0.0 | 0.00 | 0.00 | 0.00 | 66 | 1009.6 |
| 20260505062609 | 56 | 263 | 0.0 | 0.0 | 0.00 | 0.00 | 0.00 | 66 | 1009.6 |
| 20260505062107 | 56 | 262 | 0.0 | 0.0 | 0.00 | 0.00 | 0.00 | 66 | 1009.6 |
| 20260505061604 | 56 | 263 | 0.0 | 0.0 | 0.00 | 0.00 | 0.00 | 66 | 1009.6 |
| 20260505061102 | 56 | 263 | 0.0 | 0.0 | 0.00 | 0.00 | 0.00 | 65 | 1009.6 |
| 20260505060559 | 56 | 263 | 0.0 | 0.0 | 0.00 | 0.00 | 0.00 | 64 | 1009.6 |
| 20260505060056 | 57 | 263 | 0.0 | 0.0 | 0.00 | 0.00 | 0.00 | 64 | 1009.6 |
| 20260505055551 | 57 | 262 | 0.0 | 0.9 | 0.00 | 0.00 | 0.00 | 64 | 1009.6 |
| 20260505055048 | 57 | 263 | 0.0 | 0.9 | 0.00 | 0.00 | 0.00 | 64 | 1009.6 |
| 20260505054545 | 58 | 263 | 0.0 | 1.7 | 0.00 | 0.00 | 0.00 | 63 | 1009.6 |
| 20260505054043 | 58 | 263 | 0.0 | 1.7 | 0.00 | 0.00 | 0.00 | 63 | 1009.6 |
| 20260505053540 | 59 | 254 | 0.9 | 1.7 | 0.00 | 0.00 | 0.00 | 62 | 1009.6 |
| 20260505053037 | 59 | 254 | 1.7 | 2.6 | 0.00 | 0.00 | 0.00 | 61 | 1009.6 |
| 20260505052534 | 59 | 250 | 1.7 | 2.6 | 0.00 | 0.00 | 0.00 | 62 | 1009.6 |
| 20260505052031 | 59 | 257 | 1.7 | 3.5 | 0.00 | 0.00 | 0.00 | 62 | 1009.6 |
| 20260505051528 | 59 | 243 | 1.7 | 4.3 | 0.00 | 0.00 | 0.00 | 61 | 1009.6 |
| 20260505051026 | 59 | 255 | 1.7 | 6.1 | 0.00 | 0.00 | 0.00 | 61 | 1009.6 |
| 20260505050524 | 59 | 239 | 1.7 | 6.1 | 0.00 | 0.00 | 0.00 | 62 | 1009.6 |
| 20260505041451 | 58 | 252 | 0.9 | 2.6 | 0.00 | 0.00 | 0.00 | 61 | 1009.3 |
| 20260505040948 | 58 | 253 | 0.9 | 2.6 | 0.00 | 0.00 | 0.00 | 61 | 1009.3 |
| 20260505040446 | 59 | 260 | 0.0 | 1.7 | 0.00 | 0.00 | 0.00 | 61 | 1009.3 |
| 20260505035943 | 58 | 260 | 0.0 | 2.6 | 0.00 | 0.00 | 0.00 | 61 | 1008.9 |
| 20260505035439 | 58 | 260 | 0.0 | 2.6 | 0.00 | 0.00 | 0.00 | 61 | 1008.9 |
| 20260505034936 | 58 | 255 | 0.0 | 0.9 | 0.00 | 0.00 | 0.00 | 61 | 1008.9 |
| 20260505034432 | 58 | 255 | 0.0 | 0.9 | 0.00 | 0.00 | 0.00 | 61 | 1009.3 |
| 20260505033930 | 58 | 255 | 0.0 | 0.9 | 0.00 | 0.00 | 0.00 | 61 | 1009.3 |
| 20260505033426 | 58 | 255 | 0.0 | 0.9 | 0.00 | 0.00 | 0.00 | 61 | 1009.3 |
| 20260505032925 | 58 | 255 | 0.0 | 0.0 | 0.00 | 0.00 | 0.00 | 60 | 1009.3 |
| 20260505032421 | 59 | 255 | 0.0 | 0.9 | 0.00 | 0.00 | 0.00 | 59 | 1009.3 |
| 20260505031918 | 59 | 255 | 0.0 | 1.7 | 0.00 | 0.00 | 0.00 | 58 | 1009.3 |
| 20260505031415 | 59 | 255 | 0.9 | 1.7 | 0.00 | 0.00 | 0.00 | 59 | 1009.3 |
| 20260505030912 | 60 | 255 | 0.0 | 0.9 | 0.00 | 0.00 | 0.00 | 59 | 1009.6 |
| 20260505030408 | 60 | 255 | 0.0 | 0.9 | 0.00 | 0.00 | 0.00 | 57 | 1009.6 |
| 20260505025903 | 60 | 255 | 0.0 | 1.7 | 0.00 | 0.00 | 0.00 | 56 | 1009.6 |
| 20260505025401 | 61 | 255 | 0.9 | 2.6 | 0.00 | 0.00 | 0.00 | 56 | 1009.6 |
| 20260505024900 | 61 | 258 | 0.9 | 2.6 | 0.00 | 0.00 | 0.00 | 56 | 1009.6 |
| 20260505024357 | 61 | 259 | 0.9 | 3.5 | 0.00 | 0.00 | 0.00 | 56 | 1009.6 |
| 20260505023854 | 61 | 250 | 0.9 | 3.5 | 0.00 | 0.00 | 0.00 | 56 | 1009.6 |
| 20260505023351 | 62 | 254 | 1.7 | 5.2 | 0.00 | 0.00 | 0.00 | 55 | 1009.6 |
| 20260505022848 | 62 | 252 | 2.6 | 5.2 | 0.00 | 0.00 | 0.00 | 55 | 1009.6 |
| 20260505022345 | 62 | 257 | 2.6 | 6.1 | 0.00 | 0.00 | 0.00 | 54 | 1009.6 |
| 20260505021842 | 62 | 258 | 2.6 | 6.1 | 0.00 | 0.00 | 0.00 | 54 | 1009.6 |
| 20260505021338 | 62 | 258 | 2.6 | 5.2 | 0.00 | 0.00 | 0.00 | 54 | 1010.0 |
| 20260505020834 | 62 | 261 | 2.6 | 5.2 | 0.00 | 0.00 | 0.00 | 54 | 1009.6 |
| 20260505020330 | 62 | 248 | 2.6 | 4.3 | 0.00 | 0.00 | 0.00 | 54 | 1009.6 |
| 20260505015827 | 62 | 247 | 2.6 | 4.3 | 0.00 | 0.00 | 0.00 | 54 | 1009.6 |